Location: Newark
(44.3248°N, 23.7839°E)
Time: 22:58:22
(UTC+00:00)

PCSat - Pass Details

Date: 14 April 2024
Orbit: 783 x 792 km, 67.1° (Epoch: 21 May)

Event Time Altitude Azimuth Distance (km) Brightness Sun altitude
Rises 01:44:53 0° 336° (NNW) 3,298 12.9 -19.8°
Reaches altitude 10° 01:49:37 10° 13° (NNE) 2,367 12.7 -19.1°
Maximum altitude 01:50:57 11° 28° (NNE) 2,308 12.9 -18.9°
Drops below altitude 10° 01:52:17 10° 42° (NE) 2,366 13.2 -18.7°
Sets 01:56:59 0° 79° (E) 3,292 14.0 -18.0°
